Forest City, IA

10:18 PM CDT on August 31, 2016 (GMT -0500)
Forest City Municipal

Weather History for KFXY - November, 2012

Change the Weather History Date:

Monday, November 12, 2012

  Actual Average Record
Temperature  
Mean Temperature 24 °F -  
Max Temperature 28 °F 40 °F 57 °F (2011)
Min Temperature 19 °F 22 °F 8 °F (2013)
Degree Days  
Heating Degree Days 42    
Moisture  
Dew Point 15 °F    
Average Humidity 72    
Maximum Humidity 86    
Minimum Humidity 55    
Precipitation  
Precipitation 0.00 in - - ()
Sea Level Pressure  
Sea Level Pressure 30.13 in    
Wind  
Wind Speed 11 mph (West)    
Max Wind Speed 22 mph    
Max Gust Speed 28 mph    
Visibility 10 miles    
Events Snow    
Averages and records for this station are not official NWS values.
T = Trace of Precipitation, MM = Missing Value Source: NWS Daily Summary

Daily Weather History Graph

Daily Weather History Graph

Search for Another Location

Airport or City:

Trip Planner

Search our weather history database for the weather conditions in past years. The results will help you decide how hot, cold, wet, or windy it might be!

Date:

Astronomy

Nov. 12, 2012 Rise Set
Actual Time 7:04 AM CST 4:52 PM CST
Civil Twilight 6:33 AM CST 5:23 PM CST
Nautical Twilight 5:59 AM CST 5:57 PM CST
Astronomical Twilight 5:25 AM CST 6:30 PM CST
Moon 5:29 AM CST (11/12) 3:59 PM CST (11/12)
Length of Visible Light 10h 49m
Length of Day
9h 48m
Waning Crescent, 2% of the Moon is Illuminated
Nov 12
Waning Crescent
Nov 13
New
Nov 20
First Quarter
Nov 28
Full
Dec 6
Last Quarter

Hourly Weather History & Observations

Time (CST) Temp. Windchill Dew Point Humidity Pressure Visibility Wind Dir Wind Speed Gust Speed Precip Events Conditions
12:15 AM 19.4 °F 7.9 °F 12.2 °F 74% 30.01 in 10.0 mi West 10.4 mph - N/A   Clear
12:35 AM 19.4 °F 9.5 °F 12.2 °F 74% 30.01 in 10.0 mi West 8.1 mph - N/A   Clear
12:55 AM 19.4 °F 8.6 °F 12.2 °F 74% 30.02 in 10.0 mi West 9.2 mph - N/A   Mostly Cloudy
1:35 AM 21.2 °F 10.9 °F 14.0 °F 74% 30.01 in 10.0 mi West 9.2 mph 16.1 mph N/A   Overcast
1:55 AM 21.2 °F 11.7 °F 14.0 °F 74% 30.01 in 10.0 mi West 8.1 mph - N/A   Overcast
2:15 AM 21.2 °F 8.3 °F 14.0 °F 74% 30.01 in 10.0 mi West 13.8 mph - N/A   Overcast
2:35 AM 21.2 °F 11.7 °F 14.0 °F 74% 30.02 in 10.0 mi West 8.1 mph - N/A   Overcast
2:55 AM 21.2 °F 10.9 °F 14.0 °F 74% 30.02 in 10.0 mi West 9.2 mph - N/A   Overcast
3:55 AM 21.2 °F 7.3 °F 14.0 °F 74% 30.02 in 10.0 mi West 16.1 mph 20.7 mph N/A Snow Light Snow
4:15 AM 21.2 °F 12.6 °F 14.0 °F 74% 30.03 in 10.0 mi WSW 6.9 mph - N/A   Scattered Clouds
4:35 AM 19.4 °F 7.9 °F 14.0 °F 80% 30.03 in 10.0 mi West 10.4 mph - N/A   Clear
4:55 AM 19.4 °F 8.6 °F 14.0 °F 80% 30.02 in 10.0 mi West 9.2 mph - N/A   Clear
5:15 AM 19.4 °F 9.5 °F 14.0 °F 80% 30.03 in 10.0 mi West 8.1 mph - N/A   Clear
5:35 AM 19.4 °F 9.5 °F 14.0 °F 80% 30.03 in 10.0 mi West 8.1 mph - N/A   Clear
5:55 AM 19.4 °F 8.6 °F 14.0 °F 80% 30.03 in 10.0 mi WSW 9.2 mph - N/A   Clear
6:15 AM 19.4 °F 10.4 °F 14.0 °F 80% 30.03 in 10.0 mi West 6.9 mph - N/A   Clear
6:35 AM 19.4 °F 10.4 °F 14.0 °F 80% 30.04 in 10.0 mi West 6.9 mph - N/A   Clear
6:55 AM 19.4 °F 9.5 °F 14.0 °F 80% 30.04 in 10.0 mi WSW 8.1 mph - N/A   Scattered Clouds
7:15 AM 19.4 °F 7.9 °F 14.0 °F 80% 30.05 in 10.0 mi WSW 10.4 mph - N/A   Scattered Clouds
7:35 AM 21.2 °F 9.5 °F 14.0 °F 74% 30.05 in 10.0 mi West 11.5 mph 16.1 mph N/A   Scattered Clouds
7:55 AM 21.2 °F 8.3 °F 14.0 °F 74% 30.06 in 10.0 mi West 13.8 mph 19.6 mph N/A   Mostly Cloudy
8:15 AM 21.2 °F 8.9 °F 14.0 °F 74% 30.06 in 10.0 mi West 12.7 mph 20.7 mph N/A   Mostly Cloudy
8:35 AM 23.0 °F 10.6 °F 14.0 °F 68% 30.06 in 10.0 mi West 13.8 mph 21.9 mph N/A   Scattered Clouds
8:55 AM 23.0 °F 11.1 °F 15.8 °F 74% 30.06 in 10.0 mi West 12.7 mph 23.0 mph N/A   Mostly Cloudy
9:15 AM 23.0 °F 10.1 °F 15.8 °F 74% 30.07 in 10.0 mi West 15.0 mph 20.7 mph N/A   Overcast
9:35 AM 23.0 °F 11.1 °F 15.8 °F 74% 30.07 in 10.0 mi West 12.7 mph 20.7 mph N/A   Overcast
9:55 AM 24.8 °F 12.4 °F 15.8 °F 69% 30.07 in 10.0 mi West 15.0 mph 23.0 mph N/A   Overcast
10:15 AM 24.8 °F 11.5 °F 15.8 °F 69% 30.08 in 10.0 mi West 17.3 mph 25.3 mph N/A   Overcast
10:35 AM 24.8 °F 12.4 °F 17.6 °F 74% 30.08 in 5.0 mi West 15.0 mph 23.0 mph N/A Snow Light Snow
10:55 AM 24.8 °F 11.5 °F 17.6 °F 74% 30.09 in 10.0 mi West 17.3 mph 20.7 mph N/A Snow Light Snow
11:15 AM 26.6 °F 13.8 °F 17.6 °F 69% 30.09 in 10.0 mi West 17.3 mph 26.5 mph N/A Snow Light Snow
11:35 AM 26.6 °F 14.7 °F 17.6 °F 69% 30.09 in 7.0 mi West 15.0 mph 24.2 mph N/A Snow Light Snow
11:55 AM 26.6 °F 13.8 °F 17.6 °F 69% 30.09 in 7.0 mi West 17.3 mph - N/A Snow Light Snow
12:15 PM 26.6 °F 14.7 °F 17.6 °F 69% 30.09 in 10.0 mi West 15.0 mph 21.9 mph N/A Snow Light Snow
12:35 PM 26.6 °F 13.4 °F 17.6 °F 69% 30.10 in 10.0 mi West 18.4 mph 25.3 mph N/A   Overcast
12:55 PM 28.4 °F 14.7 °F 17.6 °F 64% 30.10 in 10.0 mi WNW 21.9 mph 26.5 mph N/A   Overcast
1:15 PM 28.4 °F 14.7 °F 15.8 °F 59% 30.10 in 10.0 mi WNW 21.9 mph - N/A   Overcast
1:35 PM 28.4 °F 14.7 °F 15.8 °F 59% 30.11 in 10.0 mi WNW 21.9 mph 25.3 mph N/A   Overcast
1:55 PM 28.4 °F 15.4 °F 15.8 °F 59% 30.11 in 10.0 mi WNW 19.6 mph 24.2 mph N/A   Overcast
2:15 PM 28.4 °F 15.8 °F 15.8 °F 59% 30.12 in 10.0 mi WNW 18.4 mph 26.5 mph N/A   Overcast
2:35 PM 28.4 °F 15.1 °F 14.0 °F 55% 30.13 in 10.0 mi WNW 20.7 mph 27.6 mph N/A   Overcast
2:55 PM 28.4 °F 15.1 °F 14.0 °F 55% 30.13 in 10.0 mi WNW 20.7 mph 26.5 mph N/A   Overcast
3:15 PM 28.4 °F 15.4 °F 14.0 °F 55% 30.15 in 10.0 mi WNW 19.6 mph 26.5 mph N/A   Overcast
3:35 PM 28.4 °F 15.4 °F 15.8 °F 59% 30.16 in 10.0 mi WNW 19.6 mph 24.2 mph N/A   Overcast
3:55 PM 28.4 °F 17.0 °F 17.6 °F 64% 30.17 in 10.0 mi WNW 15.0 mph 23.0 mph N/A   Overcast
4:15 PM 28.4 °F 17.0 °F 15.8 °F 59% 30.18 in 10.0 mi WNW 15.0 mph - N/A   Overcast
4:35 PM 28.4 °F 18.0 °F 17.6 °F 64% 30.18 in 10.0 mi WNW 12.7 mph - N/A   Overcast
4:55 PM 28.4 °F 17.5 °F 17.6 °F 64% 30.19 in 10.0 mi WNW 13.8 mph - N/A   Overcast
5:15 PM 28.4 °F 18.5 °F 17.6 °F 64% 30.20 in 10.0 mi WNW 11.5 mph - N/A   Mostly Cloudy
5:35 PM 26.6 °F 16.8 °F 17.6 °F 69% 30.21 in 10.0 mi WNW 10.4 mph - N/A   Scattered Clouds
5:55 PM 26.6 °F 18.2 °F 17.6 °F 69% 30.21 in 10.0 mi WNW 8.1 mph - N/A   Scattered Clouds
6:15 PM 24.8 °F 16.9 °F 17.6 °F 74% 30.22 in 10.0 mi WNW 6.9 mph - N/A   Clear
6:35 PM 23.0 °F 15.8 °F 17.6 °F 80% 30.23 in 10.0 mi WNW 5.8 mph - N/A   Clear
6:55 PM 23.0 °F 18.4 °F 17.6 °F 80% 30.24 in 10.0 mi West 3.5 mph - N/A   Clear
7:35 PM 21.2 °F 14.9 °F 15.8 °F 80% 30.25 in 10.0 mi West 4.6 mph - N/A   Clear
7:55 PM 21.2 °F 13.6 °F 15.8 °F 80% 30.26 in 10.0 mi West 5.8 mph - N/A   Clear
8:15 PM 21.2 °F 12.6 °F 15.8 °F 80% 30.26 in 10.0 mi West 6.9 mph - N/A   Clear
8:35 PM 19.4 °F 11.5 °F 15.8 °F 86% 30.27 in 10.0 mi West 5.8 mph - N/A   Clear
8:55 PM 21.2 °F 14.9 °F 15.8 °F 80% 30.28 in 10.0 mi West 4.6 mph - N/A   Clear
9:15 PM 21.2 °F 14.9 °F 14.0 °F 74% 30.29 in 10.0 mi West 4.6 mph - N/A   Clear
9:35 PM 21.2 °F 14.9 °F 14.0 °F 74% 30.30 in 10.0 mi West 4.6 mph - N/A   Clear
9:55 PM 19.4 °F 12.8 °F 14.0 °F 80% 30.30 in 10.0 mi West 4.6 mph - N/A   Clear
10:15 PM 21.2 °F 16.4 °F 14.0 °F 74% 30.31 in 10.0 mi West 3.5 mph - N/A   Clear
10:35 PM 21.2 °F 16.4 °F 14.0 °F 74% 30.31 in 10.0 mi West 3.5 mph - N/A   Clear
10:55 PM 21.2 °F 16.4 °F 14.0 °F 74% 30.31 in 10.0 mi WSW 3.5 mph - N/A   Clear
11:15 PM 19.4 °F - 14.0 °F 80% 30.32 in 10.0 mi Calm Calm - N/A   Clear
11:35 PM 19.4 °F - 14.0 °F 80% 30.32 in 10.0 mi Calm Calm - N/A   Clear
11:55 PM 19.4 °F - 14.0 °F 80% 30.31 in 10.0 mi Calm Calm - N/A   Clear